User: anonymous   Login
Location: El Bakhil
(32.7726°N, 5.5387°W)
Time: 00:27:52
(UTC+00:00)
Language:

LilacSat-2 - Orbit

View from above orbital plane
View from above orbital plane
View from above satellite
View from above satellite

Ground track
Ground track

The orbit data is extracted from the following two-line orbital elements,

1 40908U 15049K   21216.52346338  .00000693  00000-0  41110-4 0  9995
2 40908  97.5061 215.8643 0016749  38.3488  92.7544 15.14505530324505
Epoch (UTC): 04 August 2021 12:33:47
Eccentricity: 0.0016749
inclination: 97.5061°
perigee height: 511 km
apogee height: 534 km
right ascension of ascending node: 215.8643°
argument of perigee: 38.3488°
revolutions per day: 15.14505530
mean anomaly at epoch: 92.7544°
orbit number at epoch: 32450

The dashed part of the orbit path shows where the satellite is in the earth's shadow,  

DLR